Weather Roundup
Issued by NWS

Home | Current Version | Previous Version | Text Only | Print | Product List | Glossary On
Versions: 1 2 3 4 5 6 7 8 9 10 11 12 13 14 15 16 17 18 19 20 21 22 23 24 25 26 27 28 29 30 31 32 33 34 35 36 37 38 39 40 41 42 43 44 45 46 47 48 49 50
000
NZUS93 KARX 050010
HRRWXR

CURRENT HOURLY OBSERVATIONS ACROSS
MUCH OF THE UPPER MISSISSIPPI VALLEY
NATIONAL WEATHER SERVICE LA CROSSE WI
700 PM CDT TUE AUG 04 2015


...SOUTHEAST MINNESOTA...


CITY           SKY/WX    TMP DP  RH WIND       PRES   REMARKS
ROCHESTER      SUNNY     73  56  54 NW6       30.01S
ROCHESTER/MAYO FAIR      76  49  39 W8        30.00S
WINONA         SUNNY     77  52  41 NW7       29.97S
AUSTIN         MOSUNNY   73  55  53 CALM      30.01S
ALBERT LEA     MOSUNNY   73  54  49 CALM      30.01S
DODGE CENTER   MOSUNNY   73  50  43 NW5       30.01S
PRESTON        MOSUNNY   73  55  52 CALM      30.01S
OWATONNA       MOSUNNY   75  55  50 CALM      30.01S
FARIBAULT      SUNNY     75  55  50 W5        30.00S
$$

...ELSEWHERE IN MINNESOTA...


CITY           SKY/WX    TMP DP  RH WIND       PRES   REMARKS
MINNEAPOLIS    MOSUNNY   79  50  36 W10       29.97S
INTNL FALLS    PTSUNNY   64  49  57 E3        30.03S
DULUTH         PTSUNNY   66  51  58 SE9       30.00R
RED WING       SUNNY     79  52  38 W3        29.96S
REDWOOD FALLS  MOSUNNY   79  52  38 CALM      29.99S
MANKATO        MOSUNNY   75  48  38 CALM      30.00S
WORTHINGTON    PTSUNNY   75  57  53 SE3       30.01S
FAIRMONT       PTSUNNY   75  54  46 E6        30.00F
$$

...SOUTHWEST WISCONSIN...


CITY           SKY/WX    TMP DP  RH WIND       PRES   REMARKS
LA CROSSE      MOSUNNY   79  52  38 W8        29.96S
PRAIRIE DU CHI PTSUNNY   77  51  40 N5        29.97R
BOSCOBEL       MOSUNNY   79  54  41 N5        29.97R
LONE ROCK      MOSUNNY   78  52  40 NW5       29.97S
PLATTEVILLE    MOSUNNY   74  57  55 CALM      29.98S
FORT MC COY    SUNNY     77  48  35 NW6       29.98R
CAMP DOUGLAS   MOSUNNY   73  60  62 VRB5      29.96S
VIROQUA        FAIR      74  55  52 N3        30.00R
WIS DELLS      CLOUDY    77  47  34 W8        29.96S
$$

...ELSEWHERE IN WISCONSIN...


CITY           SKY/WX    TMP DP  RH WIND       PRES   REMARKS
MILWAUKEE      PTSUNNY   72  57  59 SE9       29.95S
MADISON        MOSUNNY   77  52  41 NW7       29.96S
GREEN BAY      MOSUNNY   75  57  53 NW5       29.94S
EAU CLAIRE     SUNNY     75  55  49 NW5       29.96S
BLACK RVR FLS  FAIR      78  48  35 NW3       29.96S
MEDFORD        PTSUNNY   70  54  57 NW3       29.98F
WAUSAU         PTSUNNY   74  51  44 NW7       29.96S
WIS RAPIDS     MOSUNNY   76  49  38 NW8       29.98S
MARSHFIELD     SUNNY     74  51  44 N10       29.97F
RICE LAKE      PTSUNNY   73  55  52 NW3       29.99S
$$

...NORTHEAST IOWA...


CITY           SKY/WX    TMP DP  RH WIND       PRES   REMARKS
DECORAH        MOSUNNY   73  55  53 N5        29.99R
MASON CITY     PTSUNNY   76  59  55 NE3       30.03R
CHARLES CITY   PTSUNNY   73  61  64 CALM      30.02R
OELWEIN        MOSUNNY   73  61  64 CALM      30.01R
$$

...ELSEWHERE IN IOWA...


CITY           SKY/WX    TMP DP  RH WIND       PRES   REMARKS
DES MOINES     CLOUDY    77  60  55 E7        29.99S
IOWA CITY      CLOUDY    77  64  64 S9        29.99R
FORT DODGE     MOSUNNY   75  63  64 E3        30.01R
$$

...NORTHERN ILLINOIS...


CITY           SKY/WX    TMP DP  RH WIND       PRES   REMARKS
CHICAGO-OHARE  PTSUNNY   77  53  43 N13       29.94S
CHICAGO-MIDWAY PTSUNNY   79  55  43 E9        29.93F
MOLINE         MOSUNNY   77  63  61 SW6       29.97R
ROCKFORD       PTSUNNY   76  53  44 N8        29.97S
PEORIA         MOSUNNY   79  62  56 CALM      29.97S
$$

NOTE: "FAIR" INDICATES FEW OR NO CLOUDS BELOW 12,000 FEET WITH NO
SIGNIFICANT WEATHER AND/OR OBSTRUCTIONS TO VISIBILITY. WIND
SPEEDS ARE IN MILES-PER-HOUR.



USA.gov is the U.S. government's official web portal to all federal, state and local government web resources and services.